Location: Unspecified
(0.0000°N, 0.0000°E)
Time: 10:06:36
(UTC+00:00)

ARIANE 1 DEB - Pass Details

Date: 20 February 2026
Orbit: 1090 x 21662 km, 16.1° (Epoch: 9 December)

Event Time Altitude Azimuth Distance (km) Brightness Sun altitude
Rises 00:06:57 0° 262° (W) 16,724 ? -78.9°
Reaches altitude 10° 00:26:03 10° 258° (WSW) 18,659 ? -78.6°
Maximum altitude 05:06:10 85° 163° (SSE) 5,495 ? -16.6°
Drops below altitude 10° 05:22:37 10° 76° (ENE) 4,948 ? -12.5°
Sets 05:24:50 0° 75° (ENE) 5,450 ? -12.0°
